,,Stat6,,Stat2,,Stat8,,Stat9,,Stat10,,Wind1,,Wind1,
time,status,PA1M_AVG,status,PR1M_SUM,status,RH1M_AVG,status,SR1M_AVG,status,TA1M_AVG,status,W1dAve1m,status,W1sAve1m,
2007-07-16, 00:00:00,VALID,918.341,VALID,0,VALID,100,VALID,0,VALID,18.8901,VALID,172,VALID,0.794513,
2007-07-16, 00:01:00,VALID,918.321,VALID,0,VALID,100,VALID,0,VALID,18.8996,VALID,152,VALID,1.07322,
2007-07-16, 00:02:01,VALID,918.313,VALID,0,VALID,100,VALID,-0.0509425,VALID,18.8908,VALID,164,VALID,1.21187,
2007-07-16, 00:03:00,VALID,918.304,VALID,0,VALID,100,VALID,-0.0169808,VALID,18.8674,VALID,165,VALID,1.18022,
2007-07-16, 00:04:01,VALID,918.303,VALID,0,VALID,100,VALID,-0.0169808,VALID,18.8739,VALID,156,VALID,1.02293,
2007-07-16, 00:05:01,VALID,918.309,VALID,0,VALID,100,VALID,0,VALID,18.8741,VALID,154,VALID,1.42396,
2007-07-16, 00:06:01,VALID,918.306,VALID,0,VALID,100,VALID,0,VALID,18.8511,VALID,160,VALID,1.37882,
2007-07-16, 00:07:00,VALID,918.314,VALID,0,VALID,100,VALID,-0.0169808,VALID,18.8481,VALID,163,VALID,1.50781,
2007-07-16, 00:08:00,VALID,918.31,VALID,0,VALID,100,VALID,-0.0169808,VALID,18.8349,VALID,161,VALID,1.16797,
2007-07-16, 00:09:01,VALID,918.315,VALID,0,VALID,100,VALID,-0.0339617,VALID,18.8414,VALID,157,VALID,0.95149,
2007-07-16, 00:10:00,VALID,918.307,VALID,0,VALID,100,VALID,-0.0169808,VALID,18.8252,VALID,139,VALID,1.38281,
2007-07-16, 00:11:01,VALID,918.29,VALID,0,VALID,100,VALID,-0.0339617,VALID,18.8027,VALID,150,VALID,1.17738,
2007-07-16, 00:12:01,VALID,918.272,VALID,0,VALID,100,VALID,-0.0169808,VALID,18.783,VALID,152,VALID,1.35026,
2007-07-16, 00:13:01,VALID,918.266,VALID,0,VALID,100,VALID,0,VALID,18.7805,VALID,154,VALID,1.22961,
2007-07-16, 00:14:01,VALID,918.238,VALID,0,VALID,100,VALID,0,VALID,18.7668,VALID,165,VALID,1.21816,
2007-07-16, 00:15:01,VALID,918.204,VALID,0,VALID,100,VALID,-0.0339617,VALID,18.7671,VALID,176,VALID,1.14717,
2007-07-16, 00:16:00,VALID,918.214,VALID,0,VALID,100,VALID,-0.0339617,VALID,18.7701,VALID,173,VALID,0.876453,
2007-07-16, 00:17:01,VALID,918.204,VALID,0,VALID,100,VALID,-0.0169808,VALID,18.7895,VALID,167,VALID,1.15443,
2007-07-16, 00:18:01,VALID,918.204,VALID,0,VALID,100,VALID,0,VALID,18.796,VALID,169,VALID,1.00302,
2007-07-16, 00:19:01,VALID,918.215,VALID,0,VALID,100,VALID,-0.0169808,VALID,18.8187,VALID,173,VALID,0.773801,
2007-07-16, 00:20:01,VALID,918.202,VALID,0,VALID,100,VALID,0.0339617,VALID,18.8382,VALID,175,VALID,0.757617,
2007-07-16, 00:21:01,VALID,918.204,VALID,0,VALID,100,VALID,0,VALID,18.8509,VALID,155,VALID,0.64027,
2007-07-16, 00:22:01,VALID,918.184,VALID,0,VALID,100,VALID,-0.0509425,VALID,18.8806,VALID,159,VALID,0.843192,
2007-07-16, 00:23:01,VALID,918.171,VALID,0,VALID,100,VALID,0.0169808,VALID,18.9128,VALID,153,VALID,1.25906,
2007-07-16, 00:24:01,VALID,918.143,VALID,0,VALID,100,VALID,-0.0169808,VALID,18.9355,VALID,162,VALID,0.935724,
2007-07-16, 00:25:01,VALID,918.115,VALID,0,VALID,100,VALID,-0.0339617,VALID,18.9647,VALID,165,VALID,1.5971,
2007-07-16, 00:26:01,VALID,918.095,VALID,0,VALID,100,VALID,-0.0169808,VALID,19.0036,VALID,167,VALID,0.977653,
2007-07-16, 00:27:01,VALID,918.061,VALID,0,VALID,100,VALID,0,VALID,19.0328,VALID,159,VALID,1.56788,
2007-07-16, 00:28:00,VALID,918.042,VALID,0,VALID,100,VALID,0,VALID,19.0655,VALID,164,VALID,1.70135,
2007-07-16, 00:29:00,VALID,918.033,VALID,0,VALID,100,VALID,0.0169808,VALID,19.0717,VALID,157,VALID,1.87046,
2007-07-16, 00:30:00,VALID,918.017,VALID,0,VALID,100,VALID,0,VALID,19.0682,VALID,149,VALID,1.11577,
2007-07-16, 00:31:00,VALID,918.005,VALID,0,VALID,100,VALID,0,VALID,19.075,VALID,145,VALID,0.916109,
2007-07-16, 00:32:00,VALID,917.98,VALID,0,VALID,100,VALID,0.0169808,VALID,19.0742,VALID,145,VALID,0.930618,
2007-07-16, 00:33:00,VALID,917.953,VALID,0,VALID,100,VALID,0,VALID,19.0944,VALID,135,VALID,0.551829,
2007-07-16, 00:34:00,VALID,917.95,VALID,0,VALID,100,VALID,0.0169808,VALID,19.1234,VALID,153,VALID,1.01522,
2007-07-16, 00:35:00,VALID,917.931,VALID,0,VALID,100,VALID,0,VALID,19.1625,VALID,150,VALID,1.42839,
2007-07-16, 00:36:00,VALID,917.925,VALID,0,VALID,100,VALID,0.0169808,VALID,19.1947,VALID,149,VALID,0.878452,
2007-07-16, 00:37:00,VALID,917.918,VALID,0,VALID,100,VALID,0.0169808,VALID,19.2077,VALID,146,VALID,1.50381,
2007-07-16, 00:38:00,VALID,917.917,VALID,0,VALID,100,VALID,0,VALID,19.2436,VALID,155,VALID,1.91313,
2007-07-16, 00:39:00,VALID,917.901,VALID,0,VALID,100,VALID,0.0169808,VALID,19.2564,VALID,151,VALID,0.950149,
2007-07-16, 00:40:00,VALID,917.878,VALID,0,VALID,100,VALID,0.0169808,VALID,19.2531,VALID,147,VALID,0.616629,
2007-07-16, 00:41:00,VALID,917.866,VALID,0,VALID,100,VALID,0.0169808,VALID,19.2626,VALID,144,VALID,0.706364,
2007-07-16, 00:42:00,VALID,917.851,VALID,0,VALID,100,VALID,0.0509425,VALID,19.2626,VALID,158,VALID,0.967448,
2007-07-16, 00:43:00,VALID,917.822,VALID,0,VALID,100,VALID,0.0169808,VALID,19.2693,VALID,158,VALID,0.674733,
2007-07-16, 00:44:00,VALID,917.808,VALID,0,VALID,100,VALID,-0.0169808,VALID,19.2758,VALID,179,VALID,1.10356,
2007-07-16, 00:45:00,VALID,917.778,VALID,0,VALID,100,VALID,-0.101885,VALID,19.287,VALID,166,VALID,0.885356,
2007-07-16, 00:46:00,VALID,917.764,VALID,0,VALID,100,VALID,-0.0849042,VALID,19.2873,VALID,173,VALID,0.484375,
2007-07-16, 00:47:00,VALID,917.743,VALID,0,VALID,100,VALID,-0.0849042,VALID,19.2838,VALID,179,VALID,1.02764,
2007-07-16, 00:48:00,VALID,917.724,VALID,0,VALID,100,VALID,-0.101885,VALID,19.2935,VALID,172,VALID,1.36138,
2007-07-16, 00:49:00,VALID,917.716,VALID,0,VALID,100,VALID,-0.0849042,VALID,19.3065,VALID,172,VALID,1.15727,
2007-07-16, 00:50:00,VALID,917.685,VALID,0,VALID,100,VALID,-0.0679233,VALID,19.313,VALID,161,VALID,1.08539,
2007-07-16, 00:51:00,VALID,917.66,VALID,0,VALID,100,VALID,-0.0849042,VALID,19.3292,VALID,170,VALID,1.44949,
2007-07-16, 00:52:00,VALID,917.636,VALID,0,VALID,100,VALID,-0.0849042,VALID,19.3389,VALID,168,VALID,1.51653,
2007-07-16, 00:53:00,VALID,917.608,VALID,0,VALID,100,VALID,-0.0679233,VALID,19.3522,VALID,165,VALID,1.30545,
2007-07-16, 00:54:00,VALID,917.583,VALID,0,VALID,100,VALID,-0.0849042,VALID,19.3744,VALID,169,VALID,1.47428,
2007-07-16, 00:55:00,VALID,917.565,VALID,0,VALID,100,VALID,-0.0849042,VALID,19.3943,VALID,158,VALID,1.58594,
2007-07-16, 00:56:00,VALID,917.537,VALID,0,VALID,100,VALID,-0.0849042,VALID,19.4133,VALID,152,VALID,1.59014,
2007-07-16, 00:57:00,VALID,917.523,VALID,0,VALID,100,VALID,-0.101885,VALID,19.4233,VALID,159,VALID,1.43821,
2007-07-16, 00:58:00,VALID,917.496,VALID,0,VALID,100,VALID,-0.101885,VALID,19.43,VALID,159,VALID,1.29929,
2007-07-16, 00:59:00,VALID,917.482,VALID,0,VALID,100,VALID,-0.0509425,VALID,19.433,VALID,153,VALID,1.48018,
2007-07-16, 01:00:00,VALID,917.462,VALID,0,VALID,100,VALID,0.0509425,VALID,19.438,VALID,162,VALID,1.39918,
2007-07-16, 01:01:00,VALID,917.447,VALID,0,VALID,100,VALID,0.0169808,VALID,19.4413,VALID,155,VALID,1.12711,
2007-07-16, 01:02:00,VALID,917.436,VALID,0,VALID,100,VALID,0,VALID,19.4445,VALID,162,VALID,1.39774,
2007-07-16, 01:03:00,VALID,917.432,VALID,0,VALID,100,VALID,0.0509425,VALID,19.4607,VALID,166,VALID,1.50216,
2007-07-16, 01:04:00,VALID,917.423,VALID,0,VALID,100,VALID,0.0169808,VALID,19.474,VALID,163,VALID,1.40885,
2007-07-16, 01:05:00,VALID,917.408,VALID,0,VALID,100,VALID,0,VALID,19.4735,VALID,153,VALID,1.7468,
2007-07-16, 01:06:00,VALID,917.392,VALID,0,VALID,100,VALID,0.0169808,VALID,19.477,VALID,163,VALID,1.41606,
2007-07-16, 01:07:00,VALID,917.381,VALID,0,VALID,100,VALID,0,VALID,19.4804,VALID,156,VALID,1.47954,
2007-07-16, 01:08:00,VALID,917.376,VALID,0,VALID,100,VALID,0,VALID,19.4772,VALID,158,VALID,1.23018,
2007-07-16, 01:09:00,VALID,917.346,VALID,0,VALID,100,VALID,0,VALID,19.4837,VALID,142,VALID,1.35556,
2007-07-16, 01:10:00,VALID,917.33,VALID,0,VALID,100,VALID,0,VALID,19.474,VALID,135,VALID,1.40124,
2007-07-16, 01:11:00,VALID,917.319,VALID,0,VALID,100,VALID,0,VALID,19.477,VALID,143,VALID,0.964258,
2007-07-16, 01:12:00,VALID,917.305,VALID,0,VALID,100,VALID,0.0509425,VALID,19.4705,VALID,139,VALID,1.46361,
2007-07-16, 01:13:00,VALID,917.293,VALID,0,VALID,100,VALID,0.0509425,VALID,19.4675,VALID,151,VALID,0.960574,
2007-07-16, 01:14:00,VALID,917.29,VALID,0,VALID,100,VALID,0.0169808,VALID,19.464,VALID,123,VALID,1.13529,
2007-07-16, 01:15:00,VALID,917.273,VALID,0,VALID,100,VALID,0.0169808,VALID,19.4575,VALID,120,VALID,1.41315,
2007-07-16, 01:16:00,VALID,917.264,VALID,0,VALID,100,VALID,0.0339617,VALID,19.451,VALID,112,VALID,1.02772,
2007-07-16, 01:17:00,VALID,917.262,VALID,0,VALID,100,VALID,0.0339617,VALID,19.435,VALID,115,VALID,1.16555,
2007-07-16, 01:18:00,VALID,917.245,VALID,0,VALID,100,VALID,0.0339617,VALID,19.4218,VALID,119,VALID,1.34223,
2007-07-16, 01:19:00,VALID,917.246,VALID,0,VALID,100,VALID,0.0169808,VALID,19.4253,VALID,118,VALID,1.10556,
2007-07-16, 01:20:00,VALID,917.219,VALID,0,VALID,100,VALID,0.0339617,VALID,19.4253,VALID,113,VALID,0.759673,
2007-07-16, 01:21:00,VALID,917.212,VALID,0,VALID,100,VALID,0,VALID,19.4188,VALID,114,VALID,1.21689,
2007-07-16, 01:22:00,VALID,917.185,VALID,0,VALID,100,VALID,0,VALID,19.4026,VALID,115,VALID,0.911701,
2007-07-16, 01:23:00,VALID,917.165,VALID,0,VALID,100,VALID,0,VALID,19.3963,VALID,128,VALID,1.19993,
2007-07-16, 01:24:00,VALID,917.131,VALID,0,VALID,100,VALID,0,VALID,19.3933,VALID,137,VALID,0.366044,
2007-07-16, 01:25:00,VALID,917.104,VALID,0,VALID,100,VALID,-0.0169808,VALID,19.3966,VALID,145,VALID,0.679497,
2007-07-16, 01:26:00,VALID,917.075,VALID,0,VALID,100,VALID,-0.0169808,VALID,19.3926,VALID,134,VALID,0.736374,
2007-07-16, 01:27:00,VALID,917.065,VALID,0,VALID,100,VALID,0,VALID,19.3766,VALID,134,VALID,0.948153,
2007-07-16, 01:28:00,VALID,917.039,VALID,0,VALID,100,VALID,0.0169808,VALID,19.3699,VALID,131,VALID,0.64968,
2007-07-16, 01:29:00,VALID,917.024,VALID,0,VALID,100,VALID,0,VALID,19.3604,VALID,138,VALID,0.648247,
2007-07-16, 01:30:00,VALID,916.99,VALID,0,VALID,100,VALID,-0.101885,VALID,19.3554,VALID,155,VALID,0.837713,
2007-07-16, 01:31:00,VALID,916.966,VALID,0,VALID,100,VALID,-0.118866,VALID,19.3457,VALID,163,VALID,0.915128,
2007-07-16, 01:32:00,VALID,916.947,VALID,0,VALID,100,VALID,-0.135847,VALID,19.3459,VALID,173,VALID,0.747332,
2007-07-16, 01:33:00,VALID,916.931,VALID,0,VALID,100,VALID,-0.118866,VALID,19.3297,VALID,169,VALID,0.826823,
2007-07-16, 01:34:00,VALID,916.907,VALID,0,VALID,100,VALID,-0.118866,VALID,19.3067,VALID,163,VALID,1.22578,
2007-07-16, 01:35:00,VALID,916.893,VALID,0,VALID,100,VALID,-0.118866,VALID,19.2873,VALID,158,VALID,0.9504,
2007-07-16, 01:36:00,VALID,916.892,VALID,0,VALID,100,VALID,-0.101885,VALID,19.2708,VALID,153,VALID,1.14863,
2007-07-16, 01:37:00,VALID,916.883,VALID,0,VALID,100,VALID,-0.101885,VALID,19.2483,VALID,128,VALID,0.952567,
2007-07-16, 01:38:00,VALID,916.862,VALID,0,VALID,100,VALID,-0.101885,VALID,19.2319,VALID,128,VALID,0.773624,
2007-07-16, 01:39:00,VALID,916.849,VALID,0,VALID,100,VALID,-0.101885,VALID,19.2256,VALID,123,VALID,0.757612,
2007-07-16, 01:40:00,VALID,916.844,VALID,0,VALID,100,VALID,-0.101885,VALID,19.2324,VALID,114,VALID,0.725034,
2007-07-16, 01:41:00,VALID,916.827,VALID,0,VALID,100,VALID,-0.101885,VALID,19.2418,VALID,114,VALID,0.563244,
2007-07-16, 01:42:00,VALID,916.812,VALID,0,VALID,100,VALID,-0.0849042,VALID,19.2551,VALID,93,VALID,0.850074,
2007-07-16, 01:43:00,VALID,916.803,VALID,0,VALID,100,VALID,-0.101885,VALID,19.2354,VALID,76,VALID,0.732887,
2007-07-16, 01:44:00,VALID,916.788,VALID,0,VALID,100,VALID,-0.0849042,VALID,19.2187,VALID,76,VALID,0.531771,
2007-07-16, 01:45:00,VALID,916.768,VALID,0,VALID,100,VALID,-0.0169808,VALID,19.2379,VALID,76,VALID,0.579942,
2007-07-16, 01:46:00,VALID,916.748,VALID,0,VALID,100,VALID,-0.0169808,VALID,19.2304,VALID,76,VALID,0.456395,
2007-07-16, 01:47:00,VALID,916.716,VALID,0,VALID,100,VALID,0.0169808,VALID,19.2337,VALID,76,VALID,0.384859,
2007-07-16, 01:48:00,VALID,916.702,VALID,0,VALID,100,VALID,0,VALID,19.2337,VALID,76,VALID,0.391406,
2007-07-16, 01:49:00,VALID,916.685,VALID,0,VALID,100,VALID,0.0169808,VALID,19.2302,VALID,74,VALID,0.722384,
2007-07-16, 01:50:00,VALID,916.676,VALID,0,VALID,100,VALID,-0.0169808,VALID,19.2439,VALID,64,VALID,0.872768,
2007-07-16, 01:51:00,VALID,916.661,VALID,0,VALID,100,VALID,0,VALID,19.2242,VALID,47,VALID,0.959223,
2007-07-16, 01:52:00,VALID,916.656,VALID,0,VALID,100,VALID,0,VALID,19.2144,VALID,40,VALID,0.841388,
2007-07-16, 01:53:00,VALID,916.648,VALID,0,VALID,100,VALID,0,VALID,19.1982,VALID,32,VALID,0.80816,
2007-07-16, 01:54:00,VALID,916.655,VALID,0,VALID,100,VALID,0,VALID,19.1947,VALID,31,VALID,0.734961,
2007-07-16, 01:55:00,VALID,916.678,VALID,0,VALID,100,VALID,0,VALID,19.1982,VALID,31,VALID,0.597852,
2007-07-16, 01:56:00,VALID,916.686,VALID,0,VALID,100,VALID,-0.0169808,VALID,19.1852,VALID,31,VALID,0.694931,
2007-07-16, 01:57:00,VALID,916.701,VALID,0,VALID,100,VALID,-0.0169808,VALID,19.1625,VALID,31,VALID,0.631722,
2007-07-16, 01:58:00,VALID,916.719,VALID,0,VALID,100,VALID,-0.0679233,VALID,19.1141,VALID,31,VALID,0.689135,
2007-07-16, 01:59:00,VALID,916.733,VALID,0,VALID,100,VALID,-0.0339617,VALID,19.0914,VALID,31,VALID,0.678472,
2007-07-16, 02:00:00,VALID,916.733,VALID,0,VALID,100,VALID,0,VALID,19.0555,VALID,33,VALID,0.810938,
2007-07-16, 02:01:00,VALID,916.742,VALID,0,VALID,100,VALID,-0.0509425,VALID,19.043,VALID,36,VALID,0.894259,
2007-07-16, 02:02:00,VALID,916.748,VALID,0,VALID,100,VALID,-0.0679233,VALID,19.0198,VALID,38,VALID,0.75,
2007-07-16, 02:03:00,VALID,916.737,VALID,0,VALID,100,VALID,-0.0169808,VALID,19.0008,VALID,32,VALID,0.723656,
2007-07-16, 02:04:00,VALID,916.724,VALID,0,VALID,100,VALID,0,VALID,18.9809,VALID,56,VALID,0.900298,
2007-07-16, 02:05:00,VALID,916.71,VALID,0,VALID,100,VALID,-0.0679233,VALID,18.9811,VALID,63,VALID,0.901414,
2007-07-16, 02:06:00,VALID,916.701,VALID,0,VALID,100,VALID,-0.0509425,VALID,18.9779,VALID,62,VALID,1.07522,
2007-07-16, 02:07:00,VALID,916.665,VALID,0,VALID,100,VALID,-0.0509425,VALID,18.9786,VALID,60,VALID,1.21931,
2007-07-16, 02:08:00,VALID,916.643,VALID,0,VALID,100,VALID,-0.0509425,VALID,18.9849,VALID,70,VALID,1.21608,
2007-07-16, 02:09:00,VALID,916.612,VALID,0,VALID,100,VALID,-0.0169808,VALID,18.9876,VALID,74,VALID,1.25053,
2007-07-16, 02:10:00,VALID,916.578,VALID,0,VALID,100,VALID,-0.0509425,VALID,18.9811,VALID,78,VALID,1.27325,
2007-07-16, 02:11:00,VALID,916.564,VALID,0,VALID,100,VALID,-0.0339617,VALID,18.9784,VALID,99,VALID,1.19695,
2007-07-16, 02:12:00,VALID,916.537,VALID,0,VALID,100,VALID,-0.0679233,VALID,18.9584,VALID,100,VALID,1.32013,
2007-07-16, 02:13:00,VALID,916.524,VALID,0,VALID,100,VALID,-0.0509425,VALID,18.9454,VALID,103,VALID,1.36663,
2007-07-16, 02:14:00,VALID,916.496,VALID,0,VALID,100,VALID,0,VALID,18.9357,VALID,101,VALID,1.31631,
2007-07-16, 02:15:00,VALID,916.484,VALID,0,VALID,100,VALID,-0.0169808,VALID,18.929,VALID,101,VALID,1.18205,
2007-07-16, 02:16:00,VALID,916.475,VALID,0,VALID,100,VALID,0,VALID,18.9255,VALID,121,VALID,1.30983,
2007-07-16, 02:17:00,VALID,916.455,VALID,0,VALID,100,VALID,0,VALID,18.939,VALID,136,VALID,1.21221,
2007-07-16, 02:18:00,VALID,916.451,VALID,0,VALID,100,VALID,-0.0169808,VALID,18.9485,VALID,142,VALID,1.15867,
2007-07-16, 02:19:00,VALID,916.438,VALID,0,VALID,100,VALID,-0.0169808,VALID,18.9582,VALID,142,VALID,1.19967,
2007-07-16, 02:20:00,VALID,916.43,VALID,0,VALID,100,VALID,0.0169808,VALID,18.9841,VALID,153,VALID,1.37264,
2007-07-16, 02:21:00,VALID,916.409,VALID,0,VALID,100,VALID,-0.0169808,VALID,19.0068,VALID,159,VALID,1.16842,
2007-07-16, 02:22:00,VALID,916.397,VALID,0,VALID,100,VALID,-0.0169808,VALID,19.0133,VALID,160,VALID,1.2411,
2007-07-16, 02:23:00,VALID,916.386,VALID,0,VALID,100,VALID,-0.0509425,VALID,19.033,VALID,162,VALID,1.16425,
2007-07-16, 02:24:00,VALID,916.374,VALID,0,VALID,100,VALID,-0.0169808,VALID,19.0328,VALID,162,VALID,1.21322,
2007-07-16, 02:25:00,VALID,916.381,VALID,0,VALID,100,VALID,0,VALID,19.0261,VALID,156,VALID,0.954942,
2007-07-16, 02:26:00,VALID,916.375,VALID,0,VALID,100,VALID,0,VALID,19.0325,VALID,158,VALID,1.15835,
2007-07-16, 02:27:00,VALID,916.381,VALID,0,VALID,100,VALID,-0.0339617,VALID,19.042,VALID,150,VALID,0.879954,
2007-07-16, 02:28:00,VALID,916.389,VALID,0,VALID,100,VALID,-0.0339617,VALID,19.062,VALID,157,VALID,0.89968,
2007-07-16, 02:29:00,VALID,916.396,VALID,0,VALID,100,VALID,-0.0509425,VALID,19.0715,VALID,146,VALID,0.901344,
2007-07-16, 02:30:00,VALID,916.4,VALID,0,VALID,100,VALID,0.0169808,VALID,19.1231,VALID,142,VALID,0.773777,
2007-07-16, 02:31:00,VALID,916.407,VALID,0,VALID,100,VALID,0,VALID,19.1431,VALID,142,VALID,0.599888,
2007-07-16, 02:32:00,VALID,916.416,VALID,0,VALID,100,VALID,0.0169808,VALID,19.1454,VALID,142,VALID,0.763445,
2007-07-16, 02:33:00,VALID,916.409,VALID,0,VALID,100,VALID,0,VALID,19.1843,VALID,142,VALID,0.828547,
2007-07-16, 02:34:00,VALID,916.416,VALID,0,VALID,100,VALID,0,VALID,19.214,VALID,145,VALID,0.766741,
2007-07-16, 02:35:00,VALID,916.415,VALID,0,VALID,100,VALID,0,VALID,19.2204,VALID,145,VALID,0.709635,
2007-07-16, 02:36:00,VALID,916.415,VALID,0,VALID,100,VALID,0.0169808,VALID,19.2359,VALID,145,VALID,0.660065,
2007-07-16, 02:37:00,VALID,916.412,VALID,0,VALID,100,VALID,0.0339617,VALID,19.2461,VALID,145,VALID,0.658398,
2007-07-16, 02:38:00,VALID,916.393,VALID,0,VALID,100,VALID,0.0679233,VALID,19.2586,VALID,143,VALID,0.804869,
2007-07-16, 02:39:00,VALID,916.369,VALID,0,VALID,100,VALID,0.0679233,VALID,19.2883,VALID,134,VALID,0.467226,
2007-07-16, 02:40:00,VALID,916.343,VALID,0,VALID,100,VALID,0,VALID,19.2953,VALID,134,VALID,0.578726,
2007-07-16, 02:41:00,VALID,916.318,VALID,0,VALID,100,VALID,0,VALID,19.308,VALID,134,VALID,0.521129,
2007-07-16, 02:42:00,VALID,916.277,VALID,0,VALID,100,VALID,0,VALID,19.3277,VALID,134,VALID,0.718006,
2007-07-16, 02:43:00,VALID,916.272,VALID,0,VALID,100,VALID,0.0169808,VALID,19.3699,VALID,134,VALID,0.86942,
2007-07-16, 02:44:00,VALID,916.251,VALID,0,VALID,100,VALID,0,VALID,19.4021,VALID,135,VALID,0.85,
2007-07-16, 02:45:00,VALID,916.268,VALID,0,VALID,100,VALID,0.0169808,VALID,19.4151,VALID,130,VALID,0.745393,
2007-07-16, 02:46:00,VALID,916.273,VALID,0,VALID,100,VALID,0,VALID,19.4023,VALID,118,VALID,1.10993,
2007-07-16, 02:47:00,VALID,916.282,VALID,0,VALID,100,VALID,0,VALID,19.3989,VALID,116,VALID,1.03815,
2007-07-16, 02:48:00,VALID,916.28,VALID,0,VALID,100,VALID,0.0169808,VALID,19.3722,VALID,110,VALID,1.12909,
2007-07-16, 02:49:00,VALID,916.264,VALID,0,VALID,100,VALID,-0.0169808,VALID,19.3532,VALID,112,VALID,1.00185,
2007-07-16, 02:50:00,VALID,916.261,VALID,0,VALID,100,VALID,0.0169808,VALID,19.347,VALID,133,VALID,1.06795,
2007-07-16, 02:51:00,VALID,916.237,VALID,0,VALID,100,VALID,0.0339617,VALID,19.3365,VALID,148,VALID,1.03277,
2007-07-16, 02:52:00,VALID,916.231,VALID,0,VALID,100,VALID,-0.0169808,VALID,19.35,VALID,148,VALID,0.797805,
2007-07-16, 02:53:00,VALID,916.217,VALID,0,VALID,100,VALID,-0.0169808,VALID,19.3604,VALID,151,VALID,0.951882,
2007-07-16, 02:54:00,VALID,916.203,VALID,0,VALID,100,VALID,0,VALID,19.3567,VALID,146,VALID,1.09722,
2007-07-16, 02:55:00,VALID,916.206,VALID,0,VALID,100,VALID,0.0339617,VALID,19.3567,VALID,143,VALID,0.969703,
2007-07-16, 02:56:00,VALID,916.212,VALID,0,VALID,100,VALID,-0.0169808,VALID,19.3405,VALID,129,VALID,0.75191,
2007-07-16, 02:57:00,VALID,916.218,VALID,0,VALID,100,VALID,0,VALID,19.328,VALID,131,VALID,0.947173,
2007-07-16, 02:58:00,VALID,916.207,VALID,0,VALID,100,VALID,-0.0169808,VALID,19.3085,VALID,141,VALID,1.05964,
2007-07-16, 02:59:00,VALID,916.202,VALID,0,VALID,100,VALID,-0.0339617,VALID,19.3055,VALID,133,VALID,0.818892,
2007-07-16, 03:00:00,VALID,916.192,VALID,0,VALID,100,VALID,-0.101885,VALID,19.293,VALID,150,VALID,0.933239,
2007-07-16, 03:01:00,VALID,916.173,VALID,0,VALID,100,VALID,-0.101885,VALID,19.2935,VALID,148,VALID,0.89444,
2007-07-16, 03:02:00,VALID,916.168,VALID,0,VALID,100,VALID,-0.118866,VALID,19.287,VALID,169,VALID,0.82492,
2007-07-16, 03:03:00,VALID,916.156,VALID,0,VALID,100,VALID,-0.0849042,VALID,19.287,VALID,169,VALID,1.5645,
2007-07-16, 03:04:00,VALID,916.138,VALID,0,VALID,100,VALID,-0.101885,VALID,19.29,VALID,164,VALID,0.943677,
2007-07-16, 03:05:00,VALID,916.13,VALID,0,VALID,100,VALID,-0.101885,VALID,19.2838,VALID,166,VALID,1.20349,
2007-07-16, 03:06:00,VALID,916.104,VALID,0,VALID,100,VALID,-0.0849042,VALID,19.2546,VALID,170,VALID,1.28604,
2007-07-16, 03:07:00,VALID,916.096,VALID,0,VALID,100,VALID,-0.118866,VALID,19.2187,VALID,168,VALID,1.27398,
2007-07-16, 03:08:00,VALID,916.077,VALID,0,VALID,100,VALID,-0.118866,VALID,19.186,VALID,168,VALID,1.42472,
2007-07-16, 03:09:00,VALID,916.061,VALID,0,VALID,100,VALID,-0.0849042,VALID,19.1767,VALID,164,VALID,1.65417,
2007-07-16, 03:10:00,VALID,916.055,VALID,0,VALID,100,VALID,-0.118866,VALID,19.1575,VALID,168,VALID,1.67297,
2007-07-16, 03:11:00,VALID,916.06,VALID,0,VALID,100,VALID,-0.118866,VALID,19.1508,VALID,166,VALID,1.76315,
2007-07-16, 03:12:00,VALID,916.073,VALID,0,VALID,100,VALID,-0.118866,VALID,19.141,VALID,162,VALID,1.8,
2007-07-16, 03:13:00,VALID,916.089,VALID,0,VALID,100,VALID,-0.101885,VALID,19.1635,VALID,153,VALID,1.82775,
2007-07-16, 03:14:00,VALID,916.08,VALID,0,VALID,100,VALID,-0.0849042,VALID,19.1959,VALID,148,VALID,1.59766,
2007-07-16, 03:15:00,VALID,916.074,VALID,0,VALID,100,VALID,-0.0339617,VALID,19.2047,VALID,159,VALID,1.51462,
2007-07-16, 03:16:00,VALID,916.073,VALID,0,VALID,100,VALID,-0.0169808,VALID,19.2242,VALID,154,VALID,1.36172,
2007-07-16, 03:17:00,VALID,916.064,VALID,0,VALID,100,VALID,-0.0509425,VALID,19.2499,VALID,142,VALID,1.80202,
2007-07-16, 03:18:00,VALID,916.069,VALID,0,VALID,100,VALID,0,VALID,19.2858,VALID,148,VALID,1.76491,
2007-07-16, 03:19:00,VALID,916.063,VALID,0,VALID,100,VALID,-0.0169808,VALID,19.2918,VALID,140,VALID,1.99001,
2007-07-16, 03:20:00,VALID,916.064,VALID,0,VALID,100,VALID,0,VALID,19.3145,VALID,144,VALID,1.76992,
2007-07-16, 03:21:00,VALID,916.055,VALID,0,VALID,100,VALID,0.0169808,VALID,19.3472,VALID,143,VALID,2.24399,
2007-07-16, 03:22:00,VALID,916.039,VALID,0,VALID,100,VALID,0,VALID,19.3599,VALID,143,VALID,2.45174,
2007-07-16, 03:23:00,VALID,916.032,VALID,0,VALID,100,VALID,-0.0169808,VALID,19.3764,VALID,143,VALID,2.22207,
2007-07-16, 03:24:00,VALID,916.009,VALID,0,VALID,100,VALID,0,VALID,19.3896,VALID,148,VALID,2.84877,
2007-07-16, 03:25:00,VALID,915.983,VALID,0,VALID,100,VALID,0,VALID,19.3924,VALID,144,VALID,1.84282,
2007-07-16, 03:26:00,VALID,915.954,VALID,0,VALID,100,VALID,0,VALID,19.3959,VALID,149,VALID,2.02998,
2007-07-16, 03:27:00,VALID,915.919,VALID,0,VALID,100,VALID,0,VALID,19.3921,VALID,161,VALID,2.39022,
2007-07-16, 03:28:00,VALID,915.894,VALID,0,VALID,100,VALID,0,VALID,19.3991,VALID,145,VALID,2.74524,
2007-07-16, 03:29:00,VALID,915.872,VALID,0,VALID,100,VALID,0,VALID,19.3959,VALID,136,VALID,2.266,
2007-07-16, 03:30:00,VALID,915.855,VALID,0,VALID,100,VALID,-0.0169808,VALID,19.3896,VALID,145,VALID,2.27398,
2007-07-16, 03:31:00,VALID,915.843,VALID,0,VALID,100,VALID,-0.0849042,VALID,19.4223,VALID,134,VALID,2.49902,
2007-07-16, 03:32:00,VALID,915.81,VALID,0,VALID,100,VALID,-0.0339617,VALID,19.445,VALID,137,VALID,2.55451,
2007-07-16, 03:33:00,VALID,915.783,VALID,0,VALID,100,VALID,-0.0509425,VALID,19.4587,VALID,134,VALID,3.58376,
2007-07-16, 03:34:00,VALID,915.746,VALID,0,VALID,100,VALID,-0.0339617,VALID,19.4677,VALID,137,VALID,3.48656,
2007-07-16, 03:35:00,VALID,915.704,VALID,0,VALID,100,VALID,-0.0509425,VALID,19.4747,VALID,129,VALID,3.19587,
2007-07-16, 03:36:00,VALID,915.694,VALID,0,VALID,100,VALID,-0.0509425,VALID,19.4774,VALID,143,VALID,1.93559,
2007-07-16, 03:37:00,VALID,915.687,VALID,0,VALID,100,VALID,-0.0509425,VALID,19.4682,VALID,135,VALID,2.90764,
2007-07-16, 03:38:00,VALID,915.675,VALID,0,VALID,100,VALID,-0.0339617,VALID,19.461,VALID,132,VALID,2.99201,
2007-07-16, 03:39:00,VALID,915.669,VALID,0,VALID,100,VALID,-0.0339617,VALID,19.4577,VALID,130,VALID,3.11026,
2007-07-16, 03:40:00,VALID,915.663,VALID,0,VALID,100,VALID,0,VALID,19.4607,VALID,127,VALID,2.80451,
2007-07-16, 03:41:00,VALID,915.656,VALID,0,VALID,100,VALID,-0.0169808,VALID,19.4642,VALID,115,VALID,2.99909,
2007-07-16, 03:42:00,VALID,915.661,VALID,0,VALID,100,VALID,-0.0339617,VALID,19.4742,VALID,113,VALID,3.34038,
2007-07-16, 03:43:00,VALID,915.666,VALID,0,VALID,100,VALID,-0.0339617,VALID,19.5004,VALID,127,VALID,4.12538,